AZU2680 SBKP-SBPA

Flight info

Callsign AZU2680
Flight time 1h 22m
Altitude 36000
Route SOVSI DCT ARTUT UZ38 VUKMO
Aircraft A320/M-SDE3FGHIRWY/LB1

Departure

Time 2026-05-05 00:10
Airport Viracopos International Airport (SBKP)

Arrival

Time 2026-05-05 01:33
Airport Porto Alegre-Salgado Filho International Airport (SBPA)
Time Latitude Longitude Altitude Speed Heading
2026-05-04 23:36 -23.00454 -47.14790 2169 ft 0 kts 217°
2026-05-05 00:01 -23.00450 -47.14786 864 ft 3 kts 218°
2026-05-05 00:02 -23.00435 -47.14772 1131 ft 3 kts 235°
2026-05-05 00:02 -23.00427 -47.14754 1593 ft 3 kts 275°
2026-05-05 00:02 -23.00430 -47.14740 1658 ft 0 kts 308°
2026-05-05 00:06 -23.00430 -47.14741 1657 ft 0 kts 308°
2026-05-05 00:06 -23.00413 -47.14765 2163 ft 8 kts 308°
2026-05-05 00:06 -23.00380 -47.14810 2163 ft 7 kts 308°
2026-05-05 00:06 -23.00353 -47.14847 2163 ft 5 kts 308°
2026-05-05 00:07 -23.00332 -47.14876 2165 ft 5 kts 308°
2026-05-05 00:07 -23.00308 -47.14909 2163 ft 7 kts 308°
2026-05-05 00:07 -23.00267 -47.14966 2164 ft 10 kts 308°
2026-05-05 00:07 -23.00227 -47.15015 2164 ft 8 kts 328°
2026-05-05 00:08 -23.00184 -47.15006 2169 ft 6 kts 33°
2026-05-05 00:08 -23.00146 -47.14976 2162 ft 11 kts 35°
2026-05-05 00:08 -23.00062 -47.14908 2162 ft 18 kts 38°
2026-05-05 00:08 -23.00002 -47.14830 2164 ft 8 kts 42°
2026-05-05 00:09 -22.99963 -47.14798 2163 ft 7 kts 36°
2026-05-05 00:09 -22.99918 -47.14757 2159 ft 8 kts 46°
2026-05-05 00:09 -22.99889 -47.14712 2161 ft 8 kts 62°
2026-05-05 00:09 -22.99894 -47.14635 2161 ft 16 kts 118°
2026-05-05 00:10 -23.00106 -47.14329 2167 ft 87 kts 128°
2026-05-05 00:10 -23.00606 -47.13633 2164 ft 145 kts 128°
2026-05-05 00:10 -23.01311 -47.12648 2327 ft 177 kts 128°
2026-05-05 00:10 -23.02049 -47.11621 2957 ft 178 kts 128°
2026-05-05 00:11 -23.03011 -47.10707 3303 ft 199 kts 159°
2026-05-05 00:11 -23.04456 -47.10693 3523 ft 225 kts 192°
2026-05-05 00:11 -23.05983 -47.11296 3909 ft 245 kts 201°
2026-05-05 00:11 -23.07620 -47.12095 4299 ft 269 kts 202°
2026-05-05 00:12 -23.09370 -47.12943 4979 ft 280 kts 202°
2026-05-05 00:12 -23.11113 -47.13920 5775 ft 286 kts 217°
2026-05-05 00:12 -23.12614 -47.15362 6604 ft 290 kts 222°
2026-05-05 00:12 -23.14102 -47.16811 7436 ft 293 kts 221°
2026-05-05 00:13 -23.15638 -47.18281 8283 ft 295 kts 220°
2026-05-05 00:13 -23.17191 -47.19754 9122 ft 297 kts 219°
2026-05-05 00:13 -23.18755 -47.21229 9934 ft 299 kts 218°
2026-05-05 00:13 -23.20475 -47.22487 10748 ft 298 kts 204°
2026-05-05 00:14 -23.22462 -47.23292 11126 ft 315 kts 192°
2026-05-05 00:14 -23.24672 -47.23873 11303 ft 338 kts 192°
2026-05-05 00:14 -23.27003 -47.24486 11778 ft 348 kts 193°
2026-05-05 00:14 -23.29368 -47.25116 12478 ft 351 kts 193°
2026-05-05 00:15 -23.31711 -47.25749 13183 ft 353 kts 194°
2026-05-05 00:15 -23.34105 -47.26398 13878 ft 355 kts 195°
2026-05-05 00:15 -23.36512 -47.27051 14533 ft 358 kts 196°
2026-05-05 00:15 -23.38944 -47.27711 15117 ft 363 kts 197°
2026-05-05 00:16 -23.41414 -47.28381 15647 ft 369 kts 197°
2026-05-05 00:16 -23.43927 -47.29064 16104 ft 376 kts 198°
2026-05-05 00:16 -23.46485 -47.29757 16595 ft 381 kts 198°
2026-05-05 00:16 -23.49071 -47.30457 17161 ft 385 kts 198°
2026-05-05 00:17 -23.51643 -47.31154 17697 ft 388 kts 198°
2026-05-05 00:17 -23.54269 -47.31867 18214 ft 391 kts 198°
2026-05-05 00:17 -23.56918 -47.32585 18709 ft 394 kts 199°
2026-05-05 00:17 -23.59584 -47.33307 19180 ft 396 kts 199°
2026-05-05 00:18 -23.62265 -47.34038 19672 ft 398 kts 199°
2026-05-05 00:18 -23.64965 -47.34775 20166 ft 401 kts 199°
2026-05-05 00:18 -23.67673 -47.35513 20641 ft 403 kts 199°
2026-05-05 00:18 -23.70404 -47.36257 21066 ft 406 kts 199°
2026-05-05 00:19 -23.73115 -47.36994 21524 ft 408 kts 199°
2026-05-05 00:19 -23.75872 -47.37746 21977 ft 409 kts 199°
2026-05-05 00:19 -23.78641 -47.38503 22398 ft 412 kts 199°
2026-05-05 00:19 -23.81424 -47.39263 22797 ft 414 kts 199°
2026-05-05 00:20 -23.84226 -47.40028 23163 ft 416 kts 199°
2026-05-05 00:20 -23.87041 -47.40793 23579 ft 418 kts 199°
2026-05-05 00:20 -23.89873 -47.41563 23992 ft 419 kts 199°
2026-05-05 00:20 -23.92708 -47.42338 24376 ft 421 kts 199°
2026-05-05 00:21 -23.95555 -47.43116 24760 ft 422 kts 199°
2026-05-05 00:21 -23.98369 -47.43886 25156 ft 423 kts 200°
2026-05-05 00:21 -24.01231 -47.44670 25533 ft 425 kts 200°
2026-05-05 00:21 -24.04106 -47.45457 25930 ft 426 kts 200°
2026-05-05 00:22 -24.06984 -47.46243 26331 ft 427 kts 200°
2026-05-05 00:22 -24.09870 -47.47039 26700 ft 428 kts 202°
2026-05-05 00:22 -24.12672 -47.48080 27037 ft 425 kts 207°
2026-05-05 00:22 -24.15445 -47.49218 27359 ft 427 kts 207°
2026-05-05 00:23 -24.18234 -47.50363 27703 ft 428 kts 207°
2026-05-05 00:23 -24.20987 -47.51494 28045 ft 429 kts 207°
2026-05-05 00:23 -24.23785 -47.52644 28405 ft 429 kts 208°
2026-05-05 00:23 -24.26585 -47.53797 28715 ft 431 kts 208°
2026-05-05 00:24 -24.29395 -47.54958 29015 ft 432 kts 208°
2026-05-05 00:24 -24.32211 -47.56120 29317 ft 433 kts 208°
2026-05-05 00:24 -24.35039 -47.57283 29585 ft 435 kts 208°
2026-05-05 00:24 -24.37882 -47.58454 29793 ft 438 kts 208°
2026-05-05 00:25 -24.40730 -47.59626 30157 ft 436 kts 208°
2026-05-05 00:25 -24.43560 -47.60788 30599 ft 434 kts 208°
2026-05-05 00:25 -24.46346 -47.61930 30967 ft 432 kts 208°
2026-05-05 00:25 -24.49161 -47.63085 31301 ft 432 kts 209°
2026-05-05 00:26 -24.51974 -47.64245 31645 ft 431 kts 209°
2026-05-05 00:26 -24.54775 -47.65404 31998 ft 430 kts 209°
2026-05-05 00:26 -24.57574 -47.66566 32324 ft 430 kts 209°
2026-05-05 00:26 -24.60370 -47.67724 32642 ft 430 kts 209°
2026-05-05 00:27 -24.63166 -47.68883 32961 ft 429 kts 209°
2026-05-05 00:27 -24.65959 -47.70037 33285 ft 429 kts 209°
2026-05-05 00:27 -24.68750 -47.71187 33609 ft 428 kts 209°
2026-05-05 00:27 -24.71498 -47.72321 33904 ft 428 kts 209°
2026-05-05 00:28 -24.74284 -47.73475 34211 ft 427 kts 210°
2026-05-05 00:28 -24.77067 -47.74625 34476 ft 428 kts 209°
2026-05-05 00:28 -24.79849 -47.75778 34801 ft 427 kts 210°
2026-05-05 00:28 -24.82623 -47.76931 35123 ft 425 kts 210°
2026-05-05 00:29 -24.85390 -47.78081 35417 ft 425 kts 210°
2026-05-05 00:29 -24.88146 -47.79225 35714 ft 423 kts 210°
2026-05-05 00:29 -24.90898 -47.80368 36003 ft 422 kts 210°
2026-05-05 00:29 -24.93608 -47.81495 36214 ft 422 kts 210°
2026-05-05 00:30 -24.96355 -47.82637 36272 ft 423 kts 210°
2026-05-05 00:30 -25.01859 -47.84925 36274 ft 423 kts 210°
2026-05-05 00:31 -25.07366 -47.87216 36274 ft 423 kts 210°
2026-05-05 00:31 -25.12866 -47.89512 36274 ft 423 kts 210°
2026-05-05 00:32 -25.18325 -47.91799 36274 ft 423 kts 210°
2026-05-05 00:32 -25.23830 -47.94098 36277 ft 423 kts 210°
2026-05-05 00:33 -25.29341 -47.96399 36280 ft 423 kts 210°
2026-05-05 00:33 -25.34842 -47.98705 36282 ft 423 kts 210°
2026-05-05 00:34 -25.40310 -48.00995 36279 ft 422 kts 210°
2026-05-05 00:34 -25.45789 -48.03295 36275 ft 421 kts 210°
2026-05-05 00:35 -25.51251 -48.05584 36271 ft 420 kts 210°
2026-05-05 00:35 -25.56710 -48.07876 36267 ft 419 kts 210°
2026-05-05 00:36 -25.62098 -48.10183 36263 ft 415 kts 213°
2026-05-05 00:36 -25.66972 -48.13388 36260 ft 405 kts 220°
2026-05-05 00:37 -25.71718 -48.16774 36258 ft 406 kts 220°
2026-05-05 00:37 -25.76468 -48.20153 36256 ft 406 kts 220°
2026-05-05 00:38 -25.81184 -48.23514 36254 ft 406 kts 220°
2026-05-05 00:38 -25.85928 -48.26901 36254 ft 406 kts 220°
2026-05-05 00:39 -25.90675 -48.30289 36253 ft 405 kts 220°
2026-05-05 00:39 -25.95418 -48.33680 36253 ft 405 kts 220°
2026-05-05 00:40 -26.00129 -48.37054 36252 ft 405 kts 220°
2026-05-05 00:40 -26.04870 -48.40450 36251 ft 405 kts 220°
2026-05-05 00:41 -26.09608 -48.43852 36252 ft 405 kts 220°
2026-05-05 00:41 -26.14348 -48.47258 36252 ft 405 kts 220°
2026-05-05 00:42 -26.19060 -48.50636 36252 ft 405 kts 220°
2026-05-05 00:42 -26.23799 -48.54041 36252 ft 405 kts 220°
2026-05-05 00:43 -26.28539 -48.57454 36253 ft 406 kts 220°
2026-05-05 00:43 -26.33276 -48.60875 36255 ft 406 kts 220°
2026-05-05 00:44 -26.37999 -48.64286 36164 ft 403 kts 220°
2026-05-05 00:44 -26.42669 -48.67664 36154 ft 403 kts 220°
2026-05-05 00:45 -26.47381 -48.71069 36153 ft 404 kts 220°
2026-05-05 00:45 -26.52081 -48.74512 36154 ft 404 kts 221°
2026-05-05 00:46 -26.56768 -48.77987 36157 ft 404 kts 221°
2026-05-05 00:46 -26.61459 -48.81457 36159 ft 405 kts 221°
2026-05-05 00:47 -26.66126 -48.84908 36160 ft 405 kts 221°
2026-05-05 00:47 -26.70842 -48.88370 36160 ft 406 kts 221°
2026-05-05 00:48 -26.75577 -48.91813 36159 ft 406 kts 220°
2026-05-05 00:48 -26.80311 -48.95269 36162 ft 407 kts 221°
2026-05-05 00:49 -26.85014 -48.98711 36167 ft 407 kts 221°
2026-05-05 00:49 -26.89749 -49.02176 36168 ft 407 kts 221°
2026-05-05 00:50 -26.94483 -49.05644 36170 ft 406 kts 221°
2026-05-05 00:50 -26.99213 -49.09112 36170 ft 406 kts 221°
2026-05-05 00:51 -27.03902 -49.12561 36164 ft 406 kts 221°
2026-05-05 00:51 -27.08630 -49.16037 36157 ft 407 kts 221°
2026-05-05 00:52 -27.13365 -49.19529 36152 ft 408 kts 221°
2026-05-05 00:52 -27.18111 -49.23032 36152 ft 408 kts 221°
2026-05-05 00:53 -27.22834 -49.26506 36155 ft 409 kts 220°
2026-05-05 00:53 -27.27588 -49.30010 36166 ft 409 kts 221°
2026-05-05 00:54 -27.32339 -49.33531 36164 ft 409 kts 220°
2026-05-05 00:54 -27.37097 -49.37054 36168 ft 410 kts 220°
2026-05-05 00:55 -27.41823 -49.40551 36159 ft 410 kts 220°
2026-05-05 00:55 -27.46593 -49.44092 36158 ft 411 kts 220°
2026-05-05 00:56 -27.51378 -49.47645 36167 ft 411 kts 220°
2026-05-05 00:56 -27.53738 -49.49393 36164 ft 400 kts 220°
2026-05-05 00:56 -27.56048 -49.51099 36166 ft 395 kts 220°
2026-05-05 00:57 -27.60588 -49.54462 36166 ft 393 kts 220°
2026-05-05 00:57 -27.65143 -49.57848 36166 ft 392 kts 221°
2026-05-05 00:58 -27.69700 -49.61239 36166 ft 393 kts 220°
2026-05-05 00:58 -27.74268 -49.64642 36164 ft 394 kts 220°
2026-05-05 00:59 -27.78856 -49.67968 36162 ft 395 kts 219°
2026-05-05 00:59 -27.83518 -49.71255 36160 ft 395 kts 219°
2026-05-05 01:00 -27.88177 -49.74548 36161 ft 395 kts 219°
2026-05-05 01:00 -27.92823 -49.77866 36158 ft 395 kts 220°
2026-05-05 01:01 -27.97435 -49.81174 36149 ft 396 kts 220°
2026-05-05 01:01 -28.02091 -49.84512 36147 ft 397 kts 220°
2026-05-05 01:02 -28.06756 -49.87856 36153 ft 397 kts 219°
2026-05-05 01:02 -28.11426 -49.91199 36163 ft 397 kts 219°
2026-05-05 01:03 -28.16062 -49.94529 36168 ft 397 kts 220°
2026-05-05 01:03 -28.20719 -49.97883 36169 ft 397 kts 220°
2026-05-05 01:04 -28.25381 -50.01236 36111 ft 397 kts 218°
2026-05-05 01:04 -28.30073 -50.04613 35443 ft 399 kts 218°
2026-05-05 01:04 -28.32409 -50.06290 34973 ft 395 kts 217°
2026-05-05 01:05 -28.34724 -50.07954 34494 ft 392 kts 217°
2026-05-05 01:05 -28.37014 -50.09604 34013 ft 388 kts 217°
2026-05-05 01:05 -28.39254 -50.11224 33562 ft 385 kts 217°
2026-05-05 01:05 -28.41502 -50.12852 33099 ft 382 kts 217°
2026-05-05 01:06 -28.43737 -50.14470 32639 ft 379 kts 218°
2026-05-05 01:06 -28.45950 -50.16072 32184 ft 376 kts 217°
2026-05-05 01:06 -28.48147 -50.17664 31738 ft 373 kts 217°
2026-05-05 01:06 -28.50325 -50.19243 31298 ft 369 kts 217°
2026-05-05 01:07 -28.52480 -50.20806 30861 ft 366 kts 217°
2026-05-05 01:07 -28.54619 -50.22355 30445 ft 363 kts 217°
2026-05-05 01:07 -28.56735 -50.23890 30029 ft 359 kts 217°
2026-05-05 01:07 -28.58807 -50.25394 29635 ft 356 kts 217°
2026-05-05 01:08 -28.60883 -50.26898 29237 ft 352 kts 217°
2026-05-05 01:08 -28.62942 -50.28391 28847 ft 349 kts 217°
2026-05-05 01:08 -28.64976 -50.29867 28467 ft 345 kts 217°
2026-05-05 01:08 -28.66989 -50.31327 28093 ft 341 kts 217°
2026-05-05 01:09 -28.68982 -50.32773 27704 ft 338 kts 217°
2026-05-05 01:09 -28.70956 -50.34208 27331 ft 335 kts 217°
2026-05-05 01:09 -28.72903 -50.35636 26941 ft 331 kts 218°
2026-05-05 01:09 -28.74760 -50.37115 26494 ft 330 kts 220°
2026-05-05 01:10 -28.76596 -50.38675 26046 ft 328 kts 221°
2026-05-05 01:10 -28.78403 -50.40251 25594 ft 327 kts 221°
2026-05-05 01:10 -28.80205 -50.41831 25146 ft 326 kts 221°
2026-05-05 01:10 -28.82005 -50.43404 24672 ft 326 kts 221°
2026-05-05 01:11 -28.83806 -50.44965 24197 ft 325 kts 220°
2026-05-05 01:11 -28.85607 -50.46516 23734 ft 324 kts 220°
2026-05-05 01:11 -28.87407 -50.48054 23263 ft 322 kts 220°
2026-05-05 01:11 -28.89202 -50.49580 22804 ft 321 kts 220°
2026-05-05 01:12 -28.90964 -50.51084 22361 ft 321 kts 220°
2026-05-05 01:12 -28.92748 -50.52608 21915 ft 320 kts 220°
2026-05-05 01:12 -28.94528 -50.54128 21467 ft 319 kts 220°
2026-05-05 01:12 -28.96305 -50.55646 21031 ft 319 kts 220°
2026-05-05 01:13 -28.98079 -50.57165 20598 ft 318 kts 220°
2026-05-05 01:13 -28.99848 -50.58682 20159 ft 318 kts 220°
2026-05-05 01:13 -29.01614 -50.60197 19727 ft 317 kts 220°
2026-05-05 01:13 -29.03373 -50.61706 19336 ft 315 kts 220°
2026-05-05 01:14 -29.05101 -50.63188 18932 ft 315 kts 220°
2026-05-05 01:14 -29.06852 -50.64691 18508 ft 315 kts 220°
2026-05-05 01:14 -29.08604 -50.66192 18085 ft 314 kts 220°
2026-05-05 01:14 -29.10352 -50.67692 17645 ft 314 kts 220°
2026-05-05 01:15 -29.12092 -50.69206 17258 ft 313 kts 224°
2026-05-05 01:15 -29.13602 -50.70949 17014 ft 307 kts 232°
2026-05-05 01:15 -29.15009 -50.72781 16762 ft 305 kts 231°
2026-05-05 01:15 -29.16398 -50.74588 16513 ft 304 kts 231°
2026-05-05 01:16 -29.17803 -50.76417 16261 ft 303 kts 231°
2026-05-05 01:16 -29.19177 -50.78201 16013 ft 302 kts 231°
2026-05-05 01:16 -29.20566 -50.80004 15764 ft 301 kts 231°
2026-05-05 01:16 -29.21945 -50.81799 15513 ft 300 kts 231°
2026-05-05 01:17 -29.23321 -50.83590 15261 ft 299 kts 231°
2026-05-05 01:17 -29.24691 -50.85374 15012 ft 298 kts 231°
2026-05-05 01:17 -29.26057 -50.87152 14757 ft 296 kts 232°
2026-05-05 01:17 -29.27416 -50.88923 14495 ft 297 kts 232°
2026-05-05 01:18 -29.28759 -50.90674 14257 ft 296 kts 232°
2026-05-05 01:18 -29.30110 -50.92435 14010 ft 293 kts 232°
2026-05-05 01:18 -29.31451 -50.94186 13753 ft 292 kts 232°
2026-05-05 01:18 -29.32790 -50.95936 13502 ft 292 kts 232°
2026-05-05 01:19 -29.34126 -50.97684 13247 ft 290 kts 232°
2026-05-05 01:19 -29.35455 -50.99424 12998 ft 290 kts 232°
2026-05-05 01:19 -29.36778 -51.01158 12746 ft 289 kts 232°
2026-05-05 01:19 -29.38105 -51.02891 12497 ft 289 kts 231°
2026-05-05 01:20 -29.39432 -51.04614 12242 ft 288 kts 231°
2026-05-05 01:20 -29.40740 -51.06305 11999 ft 287 kts 231°
2026-05-05 01:20 -29.42060 -51.08011 11746 ft 286 kts 231°
2026-05-05 01:20 -29.43380 -51.09719 11500 ft 285 kts 231°
2026-05-05 01:21 -29.44688 -51.11414 11242 ft 283 kts 231°
2026-05-05 01:21 -29.45989 -51.13103 10987 ft 282 kts 231°
2026-05-05 01:21 -29.47285 -51.14786 10742 ft 281 kts 231°
2026-05-05 01:21 -29.48576 -51.16465 10491 ft 280 kts 231°
2026-05-05 01:22 -29.49860 -51.18138 10240 ft 279 kts 231°
2026-05-05 01:22 -29.51124 -51.19786 10024 ft 278 kts 231°
2026-05-05 01:22 -29.52402 -51.21451 9900 ft 278 kts 231°
2026-05-05 01:22 -29.53677 -51.23114 9772 ft 278 kts 231°
2026-05-05 01:23 -29.54954 -51.24777 9649 ft 277 kts 232°
2026-05-05 01:23 -29.56231 -51.26437 9516 ft 277 kts 231°
2026-05-05 01:23 -29.57509 -51.28100 9399 ft 277 kts 231°
2026-05-05 01:23 -29.58781 -51.29758 9235 ft 276 kts 232°
2026-05-05 01:24 -29.60049 -51.31410 8876 ft 274 kts 232°
2026-05-05 01:24 -29.61309 -51.33049 8488 ft 274 kts 231°
2026-05-05 01:24 -29.62749 -51.34449 8078 ft 278 kts 216°
2026-05-05 01:24 -29.64517 -51.35366 7880 ft 283 kts 202°
2026-05-05 01:25 -29.66401 -51.36057 7683 ft 285 kts 202°
2026-05-05 01:25 -29.68290 -51.36756 7477 ft 286 kts 202°
2026-05-05 01:25 -29.70182 -51.37459 7278 ft 286 kts 202°
2026-05-05 01:25 -29.72097 -51.38083 7066 ft 289 kts 194°
2026-05-05 01:26 -29.74086 -51.38442 6752 ft 289 kts 193°
2026-05-05 01:26 -29.76073 -51.38791 6454 ft 289 kts 193°
2026-05-05 01:26 -29.78035 -51.39136 6162 ft 290 kts 193°
2026-05-05 01:26 -29.80027 -51.39487 5875 ft 289 kts 193°
2026-05-05 01:27 -29.82007 -51.39837 5571 ft 286 kts 193°
2026-05-05 01:27 -29.83949 -51.40178 5286 ft 279 kts 192°
2026-05-05 01:27 -29.85849 -51.40511 5028 ft 273 kts 192°
2026-05-05 01:27 -29.87703 -51.40838 4783 ft 267 kts 192°
2026-05-05 01:28 -29.89543 -51.40974 4531 ft 265 kts 178°
2026-05-05 01:28 -29.91306 -51.40502 4287 ft 263 kts 165°
2026-05-05 01:28 -29.92991 -51.39840 4032 ft 249 kts 165°
2026-05-05 01:28 -29.94584 -51.39216 3782 ft 236 kts 165°
2026-05-05 01:29 -29.96110 -51.38621 3535 ft 227 kts 165°
2026-05-05 01:29 -29.97551 -51.37982 3283 ft 219 kts 151°
2026-05-05 01:29 -29.98623 -51.36790 3032 ft 214 kts 123°
2026-05-05 01:29 -29.99088 -51.35196 2779 ft 209 kts 96°
2026-05-05 01:30 -29.99127 -51.33542 2563 ft 204 kts 93°
2026-05-05 01:30 -29.99158 -51.31926 2343 ft 199 kts 93°
2026-05-05 01:30 -29.99190 -51.30377 2074 ft 193 kts 93°
2026-05-05 01:30 -29.99222 -51.28846 1818 ft 189 kts 92°
2026-05-05 01:31 -29.99252 -51.27376 1569 ft 178 kts 92°
2026-05-05 01:31 -29.99281 -51.26005 1348 ft 165 kts 92°
2026-05-05 01:31 -29.99307 -51.24727 1137 ft 153 kts 91°
2026-05-05 01:31 -29.99331 -51.23553 940 ft 142 kts 91°
2026-05-05 01:32 -29.99355 -51.22431 753 ft 138 kts 90°
2026-05-05 01:32 -29.99378 -51.21325 568 ft 138 kts 90°
2026-05-05 01:32 -29.99404 -51.20224 324 ft 138 kts 89°
2026-05-05 01:32 -29.99421 -51.19134 181 ft 138 kts 90°
2026-05-05 01:33 -29.99445 -51.18028 47 ft 134 kts 89°
2026-05-05 01:33 -29.99462 -51.17074 18 ft 97 kts 92°
2026-05-05 01:33 -29.99473 -51.16494 21 ft 48 kts 92°
2026-05-05 01:33 -29.99475 -51.16272 25 ft 15 kts 80°
2026-05-05 01:34 -29.99408 -51.16232 25 ft 10 kts
2026-05-05 01:34 -29.99336 -51.16230 23 ft 10 kts 359°
2026-05-05 01:34 -29.99292 -51.16275 22 ft 9 kts 284°
2026-05-05 01:34 -29.99288 -51.16337 22 ft 7 kts 271°
2026-05-05 01:35 -29.99287 -51.16407 22 ft 10 kts 271°
2026-05-05 01:35 -29.99285 -51.16503 22 ft 14 kts 271°
2026-05-05 01:35 -29.99283 -51.16628 21 ft 17 kts 271°
2026-05-05 01:35 -29.99280 -51.16771 21 ft 19 kts 271°
2026-05-05 01:36 -29.99277 -51.16931 21 ft 21 kts 271°
2026-05-05 01:36 -29.99273 -51.17101 20 ft 19 kts 271°
2026-05-05 01:36 -29.99270 -51.17226 20 ft 14 kts 270°
2026-05-05 01:36 -29.99269 -51.17327 20 ft 11 kts 271°
2026-05-05 01:37 -29.99241 -51.17389 20 ft 8 kts 333°
2026-05-05 01:37 -29.99195 -51.17405 20 ft 6 kts 320°
2026-05-05 01:37 -29.99182 -51.17444 20 ft 5 kts 277°
2026-05-05 01:37 -29.99180 -51.17472 20 ft 0 kts 275°
2026-05-05 01:38 -29.99180 -51.17475 20 ft 3 kts 279°
2026-05-05 01:38 -29.99151 -51.17481 20 ft 3 kts
2026-05-05 01:38 -29.99138 -51.17481 20 ft 1 kts
2026-05-05 01:39 -29.99134 -51.17481 20 ft 0 kts